IW9CSJ-13 Weather Reports


Display with metric or nautical units.
time (UTC)temp
F
wind
direction
speed
MPH
gust
MPH
rain 1hr
in
rain 24hr
in
rain mn
in
humidity
%
barometer
mb
20260507134517 65 72 5.0 11.0 0.00 0.00 0.00 63 1010.0
20260507134020 66 106 4.0 11.0 0.00 0.00 0.00 62 1010.1
20260507134017 66 139 4.0 11.0 0.00 0.00 0.00 62 1010.0
20260507133523 66 106 4.0 11.0 0.00 0.00 0.00 62 1010.1
20260507133519 65 130 4.0 8.0 0.00 0.00 0.00 62 1010.1
20260507133022 65 130 4.0 8.0 0.00 0.00 0.00 62 1010.1
20260507133019 65 124 5.0 10.0 0.00 0.00 0.00 62 1010.1
20260507132523 65 124 5.0 10.0 0.00 0.00 0.00 62 1010.1
20260507132519 65 68 3.0 10.0 0.00 0.00 0.00 61 1010.1
20260507132020 66 69 5.0 10.0 0.00 0.00 0.00 60 1010.2
20260507131523 66 69 5.0 10.0 0.00 0.00 0.00 60 1010.2
20260507131025 66 148 6.0 12.0 0.00 0.00 0.00 59 1010.4
20260507131019 66 97 7.0 18.0 0.00 0.00 0.00 59 1010.3
20260507130521 66 97 7.0 18.0 0.00 0.00 0.00 59 1010.3
20260507130518 66 83 5.0 10.0 0.00 0.00 0.00 59 1010.4
20260507130027 66 83 5.0 10.0 0.00 0.00 0.00 59 1010.4
20260507130019 66 57 5.0 9.0 0.00 0.00 0.00 58 1010.2
20260507125525 66 57 5.0 9.0 0.00 0.00 0.00 58 1010.2
20260507125518 66 106 5.0 10.0 0.00 0.00 0.00 58 1010.3
20260507125023 66 106 5.0 10.0 0.00 0.00 0.00 58 1010.3
20260507125019 67 98 7.0 12.0 0.00 0.00 0.00 57 1010.5
20260507124516 67 98 7.0 12.0 0.00 0.00 0.00 57 1010.5
20260507124025 67 126 7.0 13.0 0.00 0.00 0.00 56 1010.4
20260507124020 67 134 6.0 22.0 0.00 0.00 0.00 55 1010.3
20260507123520 67 89 4.0 9.0 0.00 0.00 0.00 54 1010.5
20260507123019 67 89 4.0 9.0 0.00 0.00 0.00 54 1010.5
20260507123017 67 89 4.0 9.0 0.00 0.00 0.00 54 1010.5
20260507122519 67 116 6.0 13.0 0.00 0.00 0.00 53 1010.5
20260507122018 67 116 6.0 13.0 0.00 0.00 0.00 53 1010.5
20260507121525 67 124 6.0 13.0 0.00 0.00 0.00 52 1010.4
20260507121023 67 85 5.0 11.0 0.00 0.00 0.00 52 1010.3
20260507121020 68 71 5.0 10.0 0.00 0.00 0.00 51 1010.4
20260507120522 68 71 5.0 10.0 0.00 0.00 0.00 51 1010.4
20260507120518 68 104 6.0 22.0 0.00 0.00 0.00 50 1010.3
20260507120024 68 104 6.0 22.0 0.00 0.00 0.00 50 1010.3
20260507120020 68 142 7.0 17.0 0.00 0.00 0.00 51 1010.4
20260507115519 68 142 7.0 17.0 0.00 0.00 0.00 51 1010.4
20260507115022 68 115 5.0 10.0 0.00 0.00 0.00 50 1010.6
20260507115019 68 107 6.0 10.0 0.00 0.00 0.00 50 1010.5
20260507114520 68 107 6.0 10.0 0.00 0.00 0.00 50 1010.5
20260507114023 68 65 4.0 7.0 0.00 0.00 0.00 50 1010.3
20260507114018 67 87 5.0 11.0 0.00 0.00 0.00 52 1010.5
20260507113524 67 87 5.0 11.0 0.00 0.00 0.00 52 1010.5
20260507113518 67 44 4.0 8.0 0.00 0.00 0.00 53 1010.3
20260507113018 67 44 4.0 8.0 0.00 0.00 0.00 53 1010.3
20260507113016 67 44 4.0 8.0 0.00 0.00 0.00 53 1010.3
20260507112519 67 88 4.0 9.0 0.00 0.00 0.00 50 1010.6
20260507112018 68 51 7.0 11.0 0.00 0.00 0.00 48 1010.6
20260507111522 68 51 7.0 11.0 0.00 0.00 0.00 48 1010.6
20260507111023 68 102 4.0 10.0 0.00 0.00 0.00 47 1010.7
20260507111018 68 54 4.0 10.0 0.00 0.00 0.00 46 1010.6
20260507110519 68 54 4.0 10.0 0.00 0.00 0.00 46 1010.6
20260507110516 68 54 4.0 10.0 0.00 0.00 0.00 46 1010.6
20260507110025 68 112 5.0 10.0 0.00 0.00 0.00 44 1010.6
20260507110019 68 136 5.0 11.0 0.00 0.00 0.00 43 1010.4
20260507105523 68 136 5.0 11.0 0.00 0.00 0.00 43 1010.4
20260507105519 69 120 6.0 11.0 0.00 0.00 0.00 42 1010.4
20260507105018 69 120 6.0 11.0 0.00 0.00 0.00 42 1010.4
20260507104540 69 81 4.0 12.0 0.00 0.00 0.00 42 1010.5
20260507104519 69 111 6.0 10.0 0.00 0.00 0.00 41 1010.8
20260507104023 69 111 6.0 10.0 0.00 0.00 0.00 41 1010.8
20260507104020 69 135 6.0 11.0 0.00 0.00 0.00 42 1010.8
20260507103522 69 135 6.0 11.0 0.00 0.00 0.00 42 1010.8
20260507103019 69 143 4.0 9.0 0.00 0.00 0.00 43 1010.6
20260507103017 69 150 4.0 10.0 0.00 0.00 0.00 42 1010.5
20260507102526 69 143 4.0 9.0 0.00 0.00 0.00 43 1010.6
20260507102020 69 144 5.0 15.0 0.00 0.00 0.00 42 1010.6
20260507101524 69 144 5.0 15.0 0.00 0.00 0.00 42 1010.6
20260507101520 69 81 2.0 7.0 0.00 0.00 0.00 42 1010.7
20260507101023 69 81 2.0 7.0 0.00 0.00 0.00 42 1010.7
20260507101021 70 31 3.0 9.0 0.00 0.00 0.00 42 1010.8
20260507100521 69 111 3.0 10.0 0.00 0.00 0.00 43 1010.6
20260507100021 69 65 3.0 9.0 0.00 0.00 0.00 42 1010.8
20260507100019 69 111 3.0 10.0 0.00 0.00 0.00 43 1010.6
20260507095520 69 65 3.0 9.0 0.00 0.00 0.00 42 1010.8
20260507095019 70 72 6.0 21.0 0.00 0.00 0.00 41 1010.8
20260507094521 70 72 6.0 21.0 0.00 0.00 0.00 41 1010.8
20260507094023 69 359 7.0 13.0 0.00 0.00 0.00 41 1010.9
20260507094021 69 88 9.0 15.0 0.00 0.00 0.00 43 1010.9
20260507093520 69 107 9.0 15.0 0.00 0.00 0.00 42 1010.9
20260507093021 69 99 9.0 20.0 0.00 0.00 0.00 42 1010.8
20260507093019 69 107 9.0 15.0 0.00 0.00 0.00 42 1010.9
20260507092515 69 99 9.0 20.0 0.00 0.00 0.00 42 1010.8
20260507092025 68 65 11.0 28.0 0.00 0.00 0.00 42 1011.0
20260507092019 68 26 10.0 24.0 0.00 0.00 0.00 44 1010.8
20260507091524 68 26 10.0 24.0 0.00 0.00 0.00 44 1010.8
20260507091022 68 70 8.0 15.0 0.00 0.00 0.00 45 1010.8
20260507091015 68 70 8.0 15.0 0.00 0.00 0.00 45 1010.8
20260507090525 69 61 5.0 14.0 0.00 0.00 0.00 44 1010.7
20260507090519 69 7 5.0 12.0 0.00 0.00 0.00 44 1010.7
20260507090024 69 7 5.0 12.0 0.00 0.00 0.00 44 1010.7
20260507090019 68 3 8.0 19.0 0.00 0.00 0.00 44 1010.8
20260507085521 68 52 12.0 23.0 0.00 0.00 0.00 44 1011.0
20260507085043 68 52 12.0 23.0 0.00 0.00 0.00 44 1011.0
20260507085021 68 39 9.0 17.0 0.00 0.00 0.00 44 1010.9
20260507084524 68 39 9.0 17.0 0.00 0.00 0.00 44 1010.9
20260507084020 68 65 9.0 19.0 0.00 0.00 0.00 45 1011.0
20260507083540 68 114 10.0 22.0 0.00 0.00 0.00 44 1011.0
20260507083522 68 65 9.0 19.0 0.00 0.00 0.00 45 1011.0
20260507083021 67 89 8.0 22.0 0.00 0.00 0.00 43 1010.9
20260507083018 68 114 10.0 22.0 0.00 0.00 0.00 44 1011.0
20260507082519 67 89 8.0 22.0 0.00 0.00 0.00 43 1010.9
20260507082019 67 104 10.0 21.0 0.00 0.00 0.00 46 1011.0
20260507081517 67 68 8.0 20.0 0.00 0.00 0.00 46 1010.9
20260507081027 67 101 7.0 15.0 0.00 0.00 0.00 50 1010.9
20260507081022 67 120 9.0 24.0 0.00 0.00 0.00 48 1010.9
20260507080523 67 90 5.0 13.0 0.00 0.00 0.00 51 1010.9
20260507080520 67 101 7.0 15.0 0.00 0.00 0.00 50 1010.9
20260507080019 67 90 5.0 13.0 0.00 0.00 0.00 51 1010.9
20260507080015 67 90 5.0 13.0 0.00 0.00 0.00 51 1010.9
20260507075523 68 61 7.0 15.0 0.00 0.00 0.00 50 1011.0
20260507075518 68 92 4.0 10.0 0.00 0.00 0.00 50 1010.9
20260507075021 69 129 3.0 12.0 0.00 0.00 0.00 48 1011.0
20260507075018 68 92 4.0 10.0 0.00 0.00 0.00 50 1010.9
20260507074518 69 129 3.0 12.0 0.00 0.00 0.00 48 1011.0
20260507074021 68 98 3.0 10.0 0.00 0.00 0.00 50 1011.2
20260507074017 68 59 4.0 11.0 0.00 0.00 0.00 49 1010.9
20260507073519 68 98 3.0 10.0 0.00 0.00 0.00 50 1011.2
20260507073022 67 122 4.0 12.0 0.00 0.00 0.00 50 1011.2
20260507073020 67 145 5.0 12.0 0.00 0.00 0.00 49 1011.3
20260507072520 67 145 5.0 12.0 0.00 0.00 0.00 49 1011.3
20260507072518 67 78 4.0 8.0 0.00 0.00 0.00 50 1011.3
20260507072019 67 78 4.0 8.0 0.00 0.00 0.00 50 1011.3
20260507072017 67 78 4.0 8.0 0.00 0.00 0.00 50 1011.3
20260507071519 67 65 4.0 13.0 0.00 0.00 0.00 52 1011.4
20260507071025 67 47 6.0 18.0 0.00 0.00 0.00 52 1011.5
20260507071019 66 28 4.0 8.0 0.00 0.00 0.00 53 1011.5
20260507070522 66 28 4.0 8.0 0.00 0.00 0.00 53 1011.5
20260507070025 66 34 4.0 9.0 0.00 0.00 0.00 54 1011.5
20260507065519 66 25 5.0 11.0 0.00 0.00 0.00 55 1011.8
20260507065022 66 25 5.0 11.0 0.00 0.00 0.00 55 1011.8
20260507064522 66 5 6.0 12.0 0.00 0.00 0.00 54 1012.0
20260507064024 66 21 6.0 11.0 0.00 0.00 0.00 55 1012.1
20260507064019 65 62 5.0 11.0 0.00 0.00 0.00 54 1012.2
20260507063519 65 20 5.0 16.0 0.00 0.00 0.00 55 1012.2
20260507063020 65 20 5.0 16.0 0.00 0.00 0.00 55 1012.2
20260507063015 65 20 5.0 16.0 0.00 0.00 0.00 55 1012.2
20260507062537 65 29 6.0 12.0 0.00 0.00 0.00 55 1012.2
20260507062520 65 29 6.0 12.0 0.00 0.00 0.00 55 1012.2
20260507062019 65 360 5.0 12.0 0.00 0.00 0.00 56 1012.2
20260507062016 65 360 5.0 12.0 0.00 0.00 0.00 56 1012.2
20260507061515 65 16 2.0 6.0 0.00 0.00 0.00 56 1012.3
20260507061020 64 330 3.0 7.0 0.00 0.00 0.00 56 1012.2
20260507060522 63 22 5.0 13.0 0.00 0.00 0.00 56 1012.4
20260507060021 63 31 5.0 11.0 0.00 0.00 0.00 60 1012.4
20260507060017 63 21 3.0 9.0 0.00 0.00 0.00 59 1012.4
20260507055521 63 31 5.0 11.0 0.00 0.00 0.00 60 1012.4
20260507055024 62 31 3.0 9.0 0.00 0.00 0.00 63 1012.2
20260507055022 62 341 3.0 8.0 0.00 0.00 0.00 64 1012.3
20260507054515 62 341 3.0 8.0 0.00 0.00 0.00 64 1012.3
20260507054035 62 349 4.0 11.0 0.00 0.00 0.00 65 1012.3
20260507054018 62 349 4.0 11.0 0.00 0.00 0.00 65 1012.3
20260507053520 62 35 4.0 8.0 0.00 0.00 0.00 69 1012.3
20260507053045 62 35 4.0 8.0 0.00 0.00 0.00 69 1012.3
20260507052522 61 348 2.0 6.0 0.00 0.00 0.00 71 1012.2
20260507052024 61 352 2.0 6.0 0.00 0.00 0.00 72 1012.3
20260507052018 61 0 2.0 6.0 0.00 0.00 0.00 73 1012.4
20260507051523 61 0 2.0 6.0 0.00 0.00 0.00 73 1012.4
20260507051020 60 319 1.0 4.0 0.00 0.00 0.00 73 1012.4
20260507050523 60 334 0.0 3.0 0.00 0.00 0.00 73 1012.2
20260507050519 60 315 0.0 2.0 0.00 0.00 0.00 73 1012.2
20260507050016 60 315 0.0 2.0 0.00 0.00 0.00 73 1012.2
20260507045543 60 0.0 0.0 0.00 0.00 0.00 73 1012.3
20260507045519 61 293 0.0 2.0 0.00 0.00 0.00 73 1012.4
20260507045039 61 293 0.0 2.0 0.00 0.00 0.00 73 1012.4
20260507044523 61 3 2.0 6.0 0.00 0.00 0.00 72 1012.5
20260507044520 61 26 4.0 11.0 0.00 0.00 0.00 71 1012.6
20260507044021 61 106 4.0 9.0 0.00 0.00 0.00 70 1012.6
20260507043539 61 106 4.0 9.0 0.00 0.00 0.00 70 1012.6
20260507043020 61 72 3.0 7.0 0.00 0.00 0.00 67 1012.5
20260507042542 61 72 3.0 7.0 0.00 0.00 0.00 67 1012.5
20260507042019 61 346 1.0 4.0 0.00 0.00 0.00 65 1012.6
20260507041546 61 346 1.0 4.0 0.00 0.00 0.00 65 1012.6
20260507041017 61 346 1.0 5.0 0.00 0.00 0.00 65 1012.6
20260507040524 61 26 3.0 8.0 0.00 0.00 0.00 65 1012.5
20260507040036 61 25 3.0 8.0 0.00 0.00 0.00 66 1012.5
20260507040019 61 25 3.0 8.0 0.00 0.00 0.00 66 1012.5
20260507035536 61 32 1.0 4.0 0.00 0.00 0.00 66 1012.4
20260507035518 61 32 1.0 4.0 0.00 0.00 0.00 66 1012.4
20260507035025 61 333 1.0 5.0 0.00 0.00 0.00 66 1012.4
20260507035020 61 330 4.0 7.0 0.00 0.00 0.00 67 1012.4
20260507034522 61 330 4.0 7.0 0.00 0.00 0.00 67 1012.4
20260507034025 61 293 0.0 2.0 0.00 0.00 0.00 69 1012.4
20260507033519 60 301 3.0 7.0 0.00 0.00 0.00 72 1012.4
20260507033515 60 301 3.0 7.0 0.00 0.00 0.00 72 1012.4
20260507033040 60 24 1.0 4.0 0.00 0.00 0.00 77 1012.4
20260507032537 60 78 1.0 4.0 0.00 0.00 0.00 80 1012.3
20260507032522 59 92 1.0 4.0 0.00 0.00 0.00 84 1012.3
20260507032019 59 92 1.0 4.0 0.00 0.00 0.00 84 1012.3
20260507032016 59 92 1.0 4.0 0.00 0.00 0.00 84 1012.3
20260507031522 58 8 1.0 4.0 0.00 0.00 0.00 86 1012.3
20260507031045 58 0.0 0.0 0.00 0.00 0.00 87 1012.3
20260507030521 58 308 0.0 2.0 0.00 0.00 0.00 88 1012.2
20260507030134 58 293 0.0 2.0 0.00 0.00 0.00 88 1012.0
20260507025524 58 346 2.0 4.0 0.00 0.00 0.00 88 1012.2
20260507025518 59 299 1.0 4.0 0.00 0.00 0.00 88 1012.2
20260507025019 59 299 1.0 4.0 0.00 0.00 0.00 88 1012.2
20260507025016 59 299 1.0 4.0 0.00 0.00 0.00 88 1012.2
20260507024537 59 338 0.0 2.0 0.00 0.00 0.00 88 1012.2
20260507024017 58 0.0 0.0 0.00 0.00 0.00 88 1012.1
20260507023517 58 134 0.0 4.0 0.00 0.00 0.00 88 1012.0
20260507023022 58 116 1.0 3.0 0.00 0.00 0.00 88 1012.0
20260507022520 58 180 0.0 2.0 0.00 0.00 0.00 88 1012.1
20260507022016 58 141 1.0 5.0 0.00 0.00 0.00 88 1012.1
20260507021515 58 90 0.0 1.0 0.00 0.00 0.00 87 1012.0
20260507021020 59 348 1.0 3.0 0.00 0.00 0.00 87 1012.3
20260507020524 59 338 0.0 3.0 0.00 0.00 0.00 87 1012.4
20260507020134 59 340 1.0 3.0 0.00 0.00 0.00 87 1012.4
20260507020021 59 356 1.0 3.0 0.00 0.00 0.00 87 1012.4
20260507015521 59 37 2.0 6.0 0.00 0.00 0.00 86 1012.4
20260507015518 59 356 1.0 3.0 0.00 0.00 0.00 87 1012.4
20260507015019 59 128 2.0 5.0 0.00 0.00 0.00 86 1012.3
20260507014518 59 128 2.0 5.0 0.00 0.00 0.00 86 1012.3
20260507014043 59 0.0 0.0 0.00 0.00 0.00 85 1012.4
20260507013522 59 0 0.0 1.0 0.00 0.00 0.00 84 1012.5
20260507013520 59 0 0.0 3.0 0.00 0.00 0.00 85 1012.4
20260507012524 59 0 0.0 1.0 0.00 0.00 0.00 84 1012.5
20260507012521 59 0 0.0 2.0 0.00 0.00 0.00 83 1012.5
20260507012026 59 0 0.0 2.0 0.00 0.00 0.00 83 1012.5
20260507012021 59 357 1.0 4.0 0.00 0.00 0.00 83 1012.5
20260507011515 59 357 1.0 4.0 0.00 0.00 0.00 83 1012.5
20260507011021 59 47 0.0 3.0 0.00 0.00 0.00 83 1012.6
20260507010524 59 47 0.0 3.0 0.00 0.00 0.00 83 1012.6
20260507010520 59 147 1.0 4.0 0.00 0.00 0.00 83 1012.8
20260507010154 59 147 1.0 4.0 0.00 0.00 0.00 83 1012.8
20260507010018 59 106 0.0 2.0 0.00 0.00 0.00 83 1012.8
20260507005517 59 106 0.0 2.0 0.00 0.00 0.00 83 1012.8
20260507005018 59 55 0.0 2.0 0.00 0.00 0.00 83 1012.8
20260507004546 59 55 0.0 2.0 0.00 0.00 0.00 83 1012.8
20260507004024 59 3 0.0 4.0 0.00 0.00 0.00 82 1012.8
20260507003524 60 90 0.0 2.0 0.00 0.00 0.00 82 1012.8
20260507003519 60 39 1.0 4.0 0.00 0.00 0.00 82 1012.8
20260507003021 60 159 1.0 5.0 0.00 0.00 0.00 82 1012.8
20260507002525 60 159 1.0 5.0 0.00 0.00 0.00 82 1012.8
20260507002042 60 56 1.0 3.0 0.00 0.00 0.00 82 1012.8
20260507001542 60 47 1.0 6.0 0.00 0.00 0.00 82 1012.8
20260507001022 60 125 1.0 5.0 0.00 0.00 0.00 81 1012.9
20260507000520 60 70 0.0 3.0 0.00 0.00 0.00 81 1012.8
20260507000516 60 70 0.0 3.0 0.00 0.00 0.00 81 1012.8
20260507000135 60 51 0.0 1.0 0.00 0.00 0.00 80 1012.9
20260507000020 60 0.0 0.0 0.00 0.00 0.00 80 1012.9
20260506235520 60 112 0.0 3.0 0.00 0.00 0.00 80 1012.9
20260506235518 60 0.0 0.0 0.00 0.00 0.00 80 1012.9
20260506235020 60 112 0.0 3.0 0.00 0.00 0.00 80 1012.9
20260506235018 60 158 0.0 4.0 0.00 0.00 0.00 80 1013.0
20260506234524 60 158 0.0 4.0 0.00 0.00 0.00 80 1013.0
20260506234022 60 52 2.0 5.0 0.00 0.00 0.00 80 1013.0
20260506234019 60 160 2.0 10.0 0.00 0.00 0.00 79 1013.0
20260506233519 60 160 2.0 10.0 0.00 0.00 0.00 79 1013.0
20260506233019 60 25 1.0 6.0 0.00 0.00 0.00 79 1012.9
20260506233016 60 25 1.0 6.0 0.00 0.00 0.00 79 1012.9
20260506232538 60 117 0.0 2.0 0.00 0.00 0.00 78 1012.9
20260506232522 60 355 1.0 6.0 0.00 0.00 0.00 78 1012.9
20260506232019 60 155 1.0 7.0 0.00 0.00 0.00 79 1013.0
20260506231519 60 315 0.0 3.0 0.00 0.00 0.00 79 1013.0
20260506231022 60 315 0.0 3.0 0.00 0.00 0.00 79 1013.0
20260506231020 60 135 0.0 1.0 0.00 0.00 0.00 79 1013.0
20260506230524 60 135 0.0 1.0 0.00 0.00 0.00 79 1013.0
20260506230520 60 144 1.0 7.0 0.00 0.00 0.00 79 1012.8
20260506230022 60 144 1.0 7.0 0.00 0.00 0.00 79 1012.8
20260506225524 60 104 0.0 3.0 0.00 0.00 0.00 79 1012.8
20260506225516 60 104 0.0 3.0 0.00 0.00 0.00 79 1012.8
20260506225022 60 18 1.0 7.0 0.00 0.00 0.00 78 1012.8
20260506224522 60 114 1.0 5.0 0.00 0.00 0.00 78 1012.7
20260506224020 60 2 1.0 5.0 0.00 0.00 0.00 78 1012.6
20260506223525 60 100 1.0 4.0 0.00 0.00 0.00 78 1012.7
20260506223520 60 90 2.0 6.0 0.00 0.00 0.00 78 1012.7
20260506223023 60 90 2.0 6.0 0.00 0.00 0.00 78 1012.7
20260506222523 60 164 1.0 6.0 0.00 0.00 0.00 78 1012.6
20260506222025 60 1 1.0 4.0 0.00 0.00 0.00 79 1012.7
20260506222021 60 2 3.0 7.0 0.00 0.00 0.00 79 1012.5
20260506221521 60 1 1.0 4.0 0.00 0.00 0.00 79 1012.7
20260506221024 60 117 2.0 6.0 0.00 0.00 0.00 80 1012.7
20260506221018 60 60 2.0 6.0 0.00 0.00 0.00 81 1012.7
20260506220525 60 60 2.0 6.0 0.00 0.00 0.00 81 1012.7
20260506220021 59 100 2.0 6.0 0.00 0.00 0.00 85 1012.6
20260506220019 60 125 0.0 2.0 0.00 0.00 0.00 83 1012.5
20260506215520 59 100 2.0 6.0 0.00 0.00 0.00 85 1012.6
20260506215045 59 9 0.0 4.0 0.00 0.00 0.00 86 1012.7
20260506214643 58 342 1.0 4.0 0.00 0.00 0.00 87 1012.7
20260506214017 58 302 1.0 4.0 0.00 0.00 0.00 88 1012.6
20260506213522 58 334 2.0 6.0 0.00 0.00 0.00 88 1012.8
20260506213518 58 345 0.0 2.0 0.00 0.00 0.00 88 1012.7
20260506213016 58 345 0.0 2.0 0.00 0.00 0.00 88 1012.7
20260506212522 58 23 0.0 2.0 0.00 0.00 0.00 88 1012.3
20260506212520 58 7 0.0 1.0 0.00 0.00 0.00 88 1012.5
20260506212058 58 23 0.0 2.0 0.00 0.00 0.00 88 1012.3
20260506212021 58 0.0 0.0 0.00 0.00 0.00 88 1012.2
20260506211523 58 0.0 0.0 0.00 0.00 0.00 88 1012.2
20260506211024 58 0.0 0.0 0.00 0.00 0.00 88 1012.3
20260506211019 58 0.0 0.0 0.00 0.00 0.00 88 1012.3
20260506210524 58 0.0 0.0 0.00 0.00 0.00 88 1012.3
20260506210021 58 0.0 0.0 0.00 0.00 0.00 88 1012.4
20260506205515 58 0.0 0.0 0.00 0.00 0.00 88 1012.6
20260506205023 59 0.0 0.0 0.00 0.00 0.00 88 1012.7
20260506204526 59 0.0 0.0 0.00 0.00 0.00 88 1012.8
20260506204016 59 0.0 0.0 0.00 0.00 0.00 88 1012.8
20260506203522 59 14 0.0 2.0 0.00 0.00 0.00 88 1013.0
20260506203520 59 23 0.0 2.0 0.00 0.00 0.00 88 1012.8
20260506203019 59 350 1.0 4.0 0.00 0.00 0.00 88 1013.2
20260506202525 59 350 1.0 4.0 0.00 0.00 0.00 88 1013.2
20260506202044 59 23 0.0 2.0 0.00 0.00 0.00 88 1013.4
20260506202020 59 14 0.0 3.0 0.00 0.00 0.00 88 1013.4
20260506201538 59 14 0.0 3.0 0.00 0.00 0.00 88 1013.4
20260506201520 59 0.0 0.0 0.00 0.00 0.00 88 1013.5
20260506201102 59 0.0 0.0 0.00 0.00 0.00 88 1013.5
20260506200515 58 118 0.0 2.0 0.00 0.00 0.00 88 1013.6
20260506200025 58 338 0.0 3.0 0.00 0.00 0.00 88 1013.6
20260506195517 58 328 2.0 5.0 0.00 0.00 0.00 88 1013.7
20260506195022 58 351 1.0 4.0 0.00 0.00 0.00 88 1013.7
20260506194519 58 0 0.0 2.0 0.00 0.00 0.00 88 1013.6
20260506194021 58 92 0.0 4.0 0.00 0.00 0.00 88 1013.7
20260506193602 58 92 0.0 4.0 0.00 0.00 0.00 88 1013.7
20260506193024 58 324 1.0 3.0 0.00 0.00 0.00 88 1013.7
20260506193019 59 0.0 0.0 0.00 0.00 0.00 88 1013.7
20260506192518 59 0.0 0.0 0.00 0.00 0.00 88 1013.7
20260506192025 59 0.0 0.0 0.00 0.00 0.00 88 1013.6
20260506191518 59 97 0.0 3.0 0.00 0.00 0.00 88 1013.6
20260506191024 59 0 0.0 4.0 0.00 0.00 0.00 88 1013.6
20260506190523 59 0 1.0 4.0 0.00 0.00 0.00 88 1013.6
20260506190022 59 358 0.0 4.0 0.00 0.00 0.00 88 1013.7
20260506190019 59 360 2.0 6.0 0.00 0.00 0.00 88 1013.8
20260506185518 59 358 0.0 4.0 0.00 0.00 0.00 88 1013.7
20260506185017 59 35 1.0 3.0 0.00 0.00 0.00 88 1013.7
20260506184524 59 25 1.0 4.0 0.00 0.00 0.00 88 1013.5
20260506184519 59 0.0 0.0 0.00 0.00 0.00 88 1013.5
20260506184018 59 0.0 0.0 0.00 0.00 0.00 88 1013.5
20260506183524 59 0.0 0.0 0.00 0.00 0.00 88 1013.3
20260506183520 59 128 0.0 4.0 0.00 0.00 0.00 88 1013.4
20260506183017 59 0.0 0.0 0.00 0.00 0.00 88 1013.3
20260506182523 59 158 0.0 2.0 0.00 0.00 0.00 88 1013.4
20260506182023 59 0.0 0.0 0.00 0.00 0.00 88 1013.3
20260506182019 59 0.0 0.0 0.00 0.00 0.00 88 1013.4
20260506181523 59 0.0 0.0 0.00 0.00 0.00 88 1013.3
20260506181518 59 0.0 0.0 0.00 0.00 0.00 88 1013.2
20260506181020 59 293 0.0 1.0 0.00 0.00 0.00 87 1013.2
20260506180520 59 293 0.0 1.0 0.00 0.00 0.00 87 1013.2
20260506180518 59 135 0.0 3.0 0.00 0.00 0.00 87 1013.2
20260506180036 59 135 0.0 3.0 0.00 0.00 0.00 87 1013.2
20260506180021 59 135 0.0 3.0 0.00 0.00 0.00 87 1013.2
20260506175541 60 0.0 0.0 0.00 0.00 0.00 87 1013.1
20260506175521 60 0.0 0.0 0.00 0.00 0.00 87 1013.0
20260506175020 60 0.0 0.0 0.00 0.00 0.00 87 1012.9
20260506175018 60 0.0 0.0 0.00 0.00 0.00 87 1013.0
20260506174522 60 0.0 0.0 0.00 0.00 0.00 87 1012.9
20260506174019 60 0.0 0.0 0.00 0.00 0.00 87 1012.8
20260506174017 60 0.0 0.0 0.00 0.00 0.00 87 1012.8
20260506173547 60 0.0 0.0 0.00 0.00 0.00 87 1012.8
20260506173523 60 0.0 0.0 0.00 0.00 0.00 87 1012.7
20260506173025 60 0.0 0.0 0.00 0.00 0.00 87 1012.8
20260506173021 60 146 0.0 2.0 0.00 0.00 0.00 87 1012.8
20260506172523 60 152 0.0 2.0 0.00 0.00 0.00 87 1012.8
20260506172024 60 152 0.0 2.0 0.00 0.00 0.00 87 1012.8
20260506171520 60 135 0.0 2.0 0.00 0.00 0.00 87 1012.9
20260506171019 60 0.0 0.0 0.00 0.00 0.00 87 1012.9
20260506170522 60 0.0 0.0 0.00 0.00 0.00 87 1012.9
20260506170019 61 107 0.0 2.0 0.00 0.00 0.00 86 1013.0
20260506165535 61 136 1.0 4.0 0.00 0.00 0.00 86 1013.0
20260506165518 61 107 0.0 2.0 0.00 0.00 0.00 86 1013.0
20260506165024 61 136 1.0 4.0 0.00 0.00 0.00 86 1013.0
20260506165021 61 143 0.0 4.0 0.00 0.00 0.00 86 1013.1
20260506164525 61 156 1.0 4.0 0.00 0.00 0.00 86 1013.1
20260506164520 61 143 0.0 4.0 0.00 0.00 0.00 86 1013.1
20260506164023 61 156 1.0 4.0 0.00 0.00 0.00 86 1013.1
20260506164021 61 0.0 0.0 0.00 0.00 0.00 86 1013.1
20260506163545 61 0.0 0.0 0.00 0.00 0.00 86 1013.1
20260506163519 62 128 0.0 2.0 0.00 0.00 0.00 86 1013.1
20260506163020 62 0.0 0.0 0.00 0.00 0.00 86 1013.2
20260506162539 62 0.0 0.0 0.00 0.00 0.00 86 1013.2
20260506162518 62 0.0 0.0 0.00 0.00 0.00 86 1013.1
20260506162027 62 0.0 0.0 0.00 0.00 0.00 86 1013.1
20260506161519 62 0.0 0.0 0.00 0.00 0.00 86 1013.2
20260506161019 61 0.0 0.0 0.00 0.00 0.00 87 1013.3
20260506160523 61 0.0 0.0 0.00 0.00 0.00 87 1013.3
20260506160519 61 0.0 0.0 0.00 0.00 0.00 87 1013.4
20260506160026 61 0.0 0.0 0.00 0.00 0.00 87 1013.4
20260506160019 61 0.0 0.0 0.00 0.00 0.00 87 1013.3
20260506155523 61 0.0 0.0 0.00 0.00 0.00 87 1013.3
20260506155025 61 150 0.0 3.0 0.00 0.00 0.00 87 1013.3
20260506155020 61 113 0.0 2.0 0.00 0.00 0.00 87 1013.4
20260506154525 61 135 1.0 4.0 0.00 0.00 0.00 87 1013.5
20260506154520 61 113 0.0 2.0 0.00 0.00 0.00 87 1013.4
20260506154040 61 135 1.0 4.0 0.00 0.00 0.00 87 1013.5
20260506153515 61 145 3.0 6.0 0.00 0.00 0.00 87 1013.6
20260506153026 61 146 2.0 6.0 0.00 0.00 0.00 87 1013.7
20260506153021 61 148 2.0 6.0 0.00 0.00 0.00 87 1013.6
20260506152521 61 148 2.0 6.0 0.00 0.00 0.00 87 1013.6
20260506152515 61 148 2.0 6.0 0.00 0.00 0.00 87 1013.6
20260506152043 61 117 1.0 6.0 0.00 0.00 0.00 86 1013.5
20260506151523 61 112 1.0 6.0 0.00 0.00 0.00 86 1013.4
20260506151021 61 142 4.0 10.0 0.00 0.00 0.00 86 1013.5
20260506151019 61 112 1.0 6.0 0.00 0.00 0.00 86 1013.4
20260506150521 61 149 3.0 9.0 0.00 0.00 0.00 87 1013.5
20260506150517 61 142 4.0 10.0 0.00 0.00 0.00 86 1013.5
20260506150020 61 149 3.0 9.0 0.00 0.00 0.00 87 1013.5
20260506150018 61 133 2.0 8.0 0.00 0.00 0.00 87 1013.5
20260506145521 61 133 2.0 8.0 0.00 0.00 0.00 87 1013.5
20260506145519 61 121 3.0 6.0 0.00 0.00 0.00 87 1013.6
20260506145019 61 121 3.0 6.0 0.00 0.00 0.00 87 1013.6
20260506144524 61 79 1.0 6.0 0.00 0.00 0.00 87 1013.5
20260506144520 61 113 1.0 7.0 0.00 0.00 0.00 86 1013.5
20260506144046 61 113 1.0 7.0 0.00 0.00 0.00 86 1013.5
20260506144020 61 155 3.0 7.0 0.00 0.00 0.00 86 1013.4
20260506143520 61 155 3.0 7.0 0.00 0.00 0.00 86 1013.4
20260506143020 61 155 4.0 11.0 0.00 0.00 0.00 86 1013.0
20260506143017 61 141 3.0 8.0 0.00 0.00 0.00 86 1013.1
20260506142522 61 155 4.0 11.0 0.00 0.00 0.00 86 1013.0
20260506142021 62 134 5.0 12.0 0.00 0.00 0.00 85 1012.9
20260506142015 62 134 5.0 12.0 0.00 0.00 0.00 85 1012.9
20260506141538 62 134 4.0 12.0 0.00 0.00 0.00 85 1013.0
20260506141519 62 147 2.0 6.0 0.00 0.00 0.00 85 1013.0
20260506141019 62 141 2.0 7.0 0.00 0.00 0.00 85 1013.0
20260506140524 62 141 2.0 7.0 0.00 0.00 0.00 85 1013.0
20260506140522 62 142 3.0 9.0 0.00 0.00 0.00 85 1013.1
20260506140036 62 142 3.0 9.0 0.00 0.00 0.00 85 1013.1
20260506140018 62 142 3.0 9.0 0.00 0.00 0.00 85 1013.1
20260506135523 62 152 4.0 12.0 0.00 0.00 0.00 85 1013.0
20260506135521 62 139 2.0 6.0 0.00 0.00 0.00 85 1013.1
20260506135023 62 115 1.0 6.0 0.00 0.00 0.00 85 1013.0
20260506135020 62 139 2.0 6.0 0.00 0.00 0.00 85 1013.1